User: anonymous   Login
Location: Unspecified
(0.0000°N, 0.0000°E)
Time: 23:08:20
(UTC+00:00)
Language:

ECS 2 - Orbit

View from above orbital plane
View from above orbital plane
View from above satellite
View from above satellite

Ground track
Ground track

The orbit data is extracted from the following two-line orbital elements,

1 15158U 84081A   18112.70795222  .00000003  00000-0  00000+0 0  9990
2 15158  15.3703 357.4522 0004949 140.4966  44.8782  0.98794238 87889
Epoch (UTC): 22 April 2018 16:59:27
Eccentricity: 0.0004949
inclination: 15.3703°
perigee height: 36184 km
apogee height: 36226 km
right ascension of ascending node: 357.4522°
argument of perigee: 140.4966°
revolutions per day: 0.98794238
mean anomaly at epoch: 44.8782°
orbit number at epoch: 8788

The dashed part of the orbit path shows where the satellite is in the earth's shadow,  

DLR